Terminal Aerodrome Forecast
Issued by NWS

Home | Current Version | Previous Version | Text Only | Print | Product List | Glossary On
Versions: 1 2 3 4 5 6 7 8 9 10 11 12 13 14 15 16 17 18 19 20 21 22 23 24 25 26 27 28 29 30 31 32 33 34 35 36 37 38 39
000
FTAK31 PANC 280204 AAA
TAFADL
TAF AMD
PADL 280204Z 2802/2824 06011G18KT P6SM FEW015 OVC100 WS020/17045KT
     FM280600 06010G18KT 4SM -RASN BKN008 OVC025 WS020/16045KT=

USA.gov is the U.S. government's official web portal to all federal, state and local government web resources and services.